Location: B�hl
(48.6968°N, 8.1352°E)
Time: 08:17:22
(UTC+00:00)

Meteor 1-23 Rocket - Pass Details

Date: 08 March 2021
Orbit: 837 x 888 km, 81.3° (Epoch: 11 April)

Event Time Altitude Azimuth Distance (km) Brightness Sun altitude
Rises 18:39:08 0° 350° (N) 3,412 7.6 -13.5°
Reaches altitude 10° 18:41:35 10° 354° (N) 2,477 6.8 -13.9°
Maximum altitude 18:47:08 60° 75° (ENE) 969 4.2 -14.8°
Drops below altitude 10° 18:52:43 10° 155° (SSE) 2,490 6.3 -15.7°
Enters shadow 18:54:11 - 158° (SSE) 3,045 6.8 -15.9°
